| time (UTC) | temp F | wind direction | speed MPH | gust MPH | rain 1hr in | rain 24hr in | rain mn in | humidity % | barometer mb |
| 20260502192929 | 70 | 26 | 1.0 | 6.0 | 0.00 | 0.00 | 0.00 | 54 | 1013.7 |
| 20260502191955 | 70 | 26 | 0.0 | 7.0 | 0.00 | 0.00 | 0.00 | 56 | 1013.7 |
| 20260502190940 | 70 | 26 | 2.0 | 6.0 | 0.00 | 0.00 | 0.00 | 55 | 1013.7 |
| 20260502185943 | 70 | 26 | 3.0 | 6.0 | 0.00 | 0.00 | 0.00 | 55 | 1013.7 |
| 20260502185004 | 70 | 26 | 2.0 | 7.0 | 0.00 | 0.00 | 0.00 | 54 | 1013.7 |
| 20260502183926 | 69 | 26 | 1.0 | 5.0 | 0.00 | 0.00 | 0.00 | 55 | 1013.7 |
| 20260502182934 | 69 | 26 | 0.0 | 5.0 | 0.00 | 0.00 | 0.00 | 58 | 1013.7 |
| 20260502181940 | 68 | 26 | 1.0 | 6.0 | 0.00 | 0.00 | 0.00 | 61 | 1013.7 |
| 20260502180943 | 68 | 26 | 0.0 | 0.0 | 0.00 | 0.00 | 0.00 | 60 | 1013.6 |
| 20260502162944 | 61 | 26 | 0.0 | 0.0 | 0.00 | 0.00 | 0.00 | 70 | 1013.7 |
| 20260502161931 | 61 | 26 | 0.0 | 0.0 | 0.00 | 0.00 | 0.00 | 69 | 1013.7 |
| 20260502160937 | 60 | 26 | 0.0 | 0.0 | 0.00 | 0.00 | 0.00 | 68 | 1013.7 |
| 20260502152005 | 59 | 26 | 0.0 | 0.0 | 0.00 | 0.00 | 0.00 | 70 | 1013.5 |
| 20260502150930 | 59 | 26 | 0.0 | 0.0 | 0.00 | 0.00 | 0.00 | 68 | 1013.4 |
| 20260502122935 | 55 | 26 | 0.0 | 0.0 | 0.00 | 0.00 | 0.00 | 57 | 1012.9 |
| 20260502121941 | 56 | 26 | 0.0 | 0.0 | 0.00 | 0.00 | 0.00 | 57 | 1012.8 |
| 20260502120942 | 56 | 26 | 0.0 | 0.0 | 0.00 | 0.00 | 0.00 | 56 | 1012.8 |
| 20260502114926 | 58 | 26 | 0.0 | 0.0 | 0.00 | 0.00 | 0.00 | 55 | 1012.8 |
| 20260502113935 | 59 | 26 | 0.0 | 0.0 | 0.00 | 0.00 | 0.00 | 51 | 1012.8 |
| 20260502112936 | 60 | 26 | 0.0 | 0.0 | 0.00 | 0.00 | 0.00 | 51 | 1012.9 |
| 20260502111937 | 60 | 26 | 0.0 | 0.0 | 0.00 | 0.00 | 0.00 | 49 | 1012.9 |
| 20260502110939 | 61 | 26 | 0.0 | 0.0 | 0.00 | 0.00 | 0.00 | 48 | 1012.9 |
| 20260502105941 | 61 | 26 | 0.0 | 0.0 | 0.00 | 0.00 | 0.00 | 47 | 1012.9 |
| 20260502104946 | 62 | 26 | 0.0 | 3.0 | 0.00 | 0.00 | 0.00 | 45 | 1012.8 |
| 20260502103930 | 62 | 26 | 0.0 | 2.0 | 0.00 | 0.00 | 0.00 | 45 | 1012.7 |
| 20260502102933 | 63 | 26 | 0.0 | 0.0 | 0.00 | 0.00 | 0.00 | 46 | 1012.7 |
| 20260502101956 | 64 | 26 | 0.0 | 0.0 | 0.00 | 0.00 | 0.00 | 44 | 1012.6 |
| 20260502090958 | 65 | 360 | 2.0 | 10.0 | 0.00 | 0.00 | 0.00 | 40 | 1012.4 |
| 20260502070942 | 65 | 360 | 0.0 | 8.0 | 0.00 | 0.00 | 0.00 | 42 | 1012.7 |
| 20260502065948 | 65 | 360 | 0.0 | 4.0 | 0.00 | 0.00 | 0.00 | 42 | 1012.6 |
| 20260502064930 | 65 | 360 | 1.0 | 7.0 | 0.00 | 0.00 | 0.00 | 42 | 1012.6 |
| 20260502063936 | 64 | 360 | 0.0 | 4.0 | 0.00 | 0.00 | 0.00 | 43 | 1012.6 |
| 20260502062946 | 64 | 360 | 0.0 | 2.0 | 0.00 | 0.00 | 0.00 | 44 | 1012.6 |
| 20260502061948 | 63 | 360 | 0.0 | 0.0 | 0.00 | 0.00 | 0.00 | 45 | 1012.7 |
| 20260502060930 | 63 | 360 | 0.0 | 0.0 | 0.00 | 0.00 | 0.00 | 47 | 1012.7 |
| 20260502055931 | 63 | 360 | 0.0 | 0.0 | 0.00 | 0.00 | 0.00 | 47 | 1012.7 |
| 20260502054940 | 62 | 360 | 0.0 | 0.0 | 0.00 | 0.00 | 0.00 | 48 | 1012.7 |
| 20260502054014 | 62 | 360 | 0.0 | 0.0 | 0.00 | 0.00 | 0.00 | 50 | 1012.6 |
| 20260502052958 | 61 | 360 | 0.0 | 0.0 | 0.00 | 0.00 | 0.00 | 52 | 1012.6 |
| 20260502051935 | 62 | 360 | 0.0 | 0.0 | 0.00 | 0.00 | 0.00 | 52 | 1012.6 |
| 20260502050943 | 63 | 360 | 0.0 | 0.0 | 0.00 | 0.00 | 0.00 | 51 | 1012.6 |
| 20260502045938 | 64 | 360 | 0.0 | 0.0 | 0.00 | 0.00 | 0.00 | 51 | 1012.6 |
| 20260502044942 | 65 | 360 | 0.0 | 1.0 | 0.00 | 0.00 | 0.00 | 51 | 1012.7 |
| 20260502043943 | 65 | 360 | 0.0 | 4.0 | 0.00 | 0.00 | 0.00 | 48 | 1012.7 |
| 20260502041939 | 63 | 338 | 4.0 | 11.0 | 0.00 | 0.00 | 0.00 | 53 | 1012.7 |
| 20260502040941 | 61 | 294 | 0.0 | 0.0 | 0.00 | 0.00 | 0.00 | 56 | 1012.7 |
| 20260502035926 | 62 | 294 | 0.0 | 0.0 | 0.00 | 0.00 | 0.00 | 62 | 1012.9 |
| 20260502034933 | 62 | 294 | 0.0 | 0.0 | 0.00 | 0.00 | 0.00 | 61 | 1012.9 |
| 20260502033935 | 63 | 294 | 0.0 | 0.0 | 0.00 | 0.00 | 0.00 | 60 | 1012.8 |
| 20260502032937 | 64 | 294 | 0.0 | 0.0 | 0.00 | 0.00 | 0.00 | 60 | 1012.7 |
| 20260502031945 | 66 | 294 | 0.0 | 0.0 | 0.00 | 0.00 | 0.00 | 58 | 1012.7 |
| 20260502030947 | 67 | 294 | 0.0 | 0.0 | 0.00 | 0.00 | 0.00 | 57 | 1012.7 |
| 20260502025930 | 68 | 294 | 0.0 | 0.0 | 0.00 | 0.00 | 0.00 | 56 | 1012.7 |
| 20260502024934 | 69 | 294 | 0.0 | 0.0 | 0.00 | 0.00 | 0.00 | 55 | 1012.7 |
| 20260502023936 | 70 | 294 | 0.0 | 0.0 | 0.00 | 0.00 | 0.00 | 54 | 1012.6 |
| 20260502022930 | 71 | 294 | 0.0 | 0.0 | 0.00 | 0.00 | 0.00 | 54 | 1012.6 |
| 20260502022005 | 72 | 294 | 0.0 | 0.0 | 0.00 | 0.00 | 0.00 | 50 | 1012.5 |
| 20260502020944 | 73 | 294 | 0.0 | 0.0 | 0.00 | 0.00 | 0.00 | 48 | 1012.4 |
| 20260502015950 | 74 | 294 | 0.0 | 0.0 | 0.00 | 0.00 | 0.00 | 48 | 1012.4 |
| 20260502014952 | 75 | 294 | 0.0 | 0.0 | 0.00 | 0.00 | 0.00 | 47 | 1012.5 |
| 20260502013932 | 76 | 294 | 0.0 | 0.0 | 0.00 | 0.00 | 0.00 | 48 | 1012.6 |
| 20260502012937 | 77 | 294 | 0.0 | 0.0 | 0.00 | 0.00 | 0.00 | 44 | 1012.6 |
| 20260502011959 | 78 | 294 | 0.0 | 0.0 | 0.00 | 0.00 | 0.00 | 43 | 1012.7 |
| 20260502010940 | 79 | 294 | 0.0 | 0.0 | 0.00 | 0.00 | 0.00 | 42 | 1012.7 |
| 20260502010005 | 79 | 294 | 0.0 | 1.0 | 0.00 | 0.00 | 0.00 | 39 | 1012.8 |
| 20260502004945 | 79 | 294 | 2.0 | 7.0 | 0.00 | 0.00 | 0.00 | 35 | 1012.9 |
| 20260502004005 | 79 | 294 | 1.0 | 9.0 | 0.00 | 0.00 | 0.00 | 36 | 1012.9 |
| 20260502002947 | 79 | 294 | 2.0 | 10.0 | 0.00 | 0.00 | 0.00 | 38 | 1013.0 |
| 20260502001930 | 79 | 294 | 1.0 | 8.0 | 0.00 | 0.00 | 0.00 | 34 | 1013.0 |
| 20260502000936 | 79 | 294 | 1.0 | 8.0 | 0.00 | 0.00 | 0.00 | 37 | 1013.0 |
| 20260501235942 | 80 | 294 | 4.0 | 7.0 | 0.00 | 0.00 | 0.00 | 34 | 1013.1 |
| 20260501234945 | 80 | 294 | 2.0 | 6.0 | 0.00 | 0.00 | 0.00 | 38 | 1013.2 |
| 20260501233950 | 79 | 294 | 0.0 | 6.0 | 0.00 | 0.00 | 0.00 | 39 | 1013.2 |
| 20260501232957 | 79 | 294 | 3.0 | 10.0 | 0.00 | 0.00 | 0.00 | 34 | 1013.3 |
| 20260501231937 | 80 | 294 | 3.0 | 8.0 | 0.00 | 0.00 | 0.00 | 38 | 1013.4 |
| 20260501230937 | 79 | 294 | 1.0 | 5.0 | 0.00 | 0.00 | 0.00 | 38 | 1013.6 |
| 20260501225938 | 79 | 294 | 0.0 | 8.0 | 0.00 | 0.00 | 0.00 | 39 | 1013.8 |
| 20260501224939 | 79 | 294 | 4.0 | 9.0 | 0.00 | 0.00 | 0.00 | 36 | 1014.0 |
| 20260501224000 | 80 | 294 | 0.0 | 7.0 | 0.00 | 0.00 | 0.00 | 34 | 1014.1 |
| 20260501222944 | 80 | 294 | 2.0 | 9.0 | 0.00 | 0.00 | 0.00 | 34 | 1014.3 |
| 20260501221946 | 79 | 294 | 6.0 | 10.0 | 0.00 | 0.00 | 0.00 | 37 | 1014.5 |
| 20260501220949 | 79 | 294 | 3.0 | 10.0 | 0.00 | 0.00 | 0.00 | 41 | 1014.6 |
| 20260501214943 | 79 | 294 | 0.0 | 7.0 | 0.00 | 0.00 | 0.00 | 46 | 1014.9 |
| 20260501213928 | 79 | 294 | 0.0 | 6.0 | 0.00 | 0.00 | 0.00 | 41 | 1015.0 |
| 20260501212934 | 79 | 294 | 2.0 | 7.0 | 0.00 | 0.00 | 0.00 | 39 | 1015.1 |
| 20260501211944 | 79 | 294 | 1.0 | 6.0 | 0.00 | 0.00 | 0.00 | 40 | 1015.3 |
| 20260501210950 | 78 | 294 | 1.0 | 4.0 | 0.00 | 0.00 | 0.00 | 44 | 1015.4 |
| 20260501205932 | 77 | 294 | 1.0 | 8.0 | 0.00 | 0.00 | 0.00 | 38 | 1015.5 |
| 20260501204934 | 77 | 294 | 2.0 | 6.0 | 0.00 | 0.00 | 0.00 | 38 | 1015.5 |
| 20260501203936 | 77 | 294 | 0.0 | 6.0 | 0.00 | 0.00 | 0.00 | 38 | 1015.6 |
| 20260501202943 | 76 | 294 | 2.0 | 7.0 | 0.00 | 0.00 | 0.00 | 39 | 1015.7 |
| 20260501201948 | 76 | 294 | 2.0 | 8.0 | 0.00 | 0.00 | 0.00 | 43 | 1015.8 |
| 20260501200935 | 76 | 294 | 0.0 | 6.0 | 0.00 | 0.00 | 0.00 | 45 | 1015.9 |
| 20260501195950 | 75 | 294 | 0.0 | 7.0 | 0.00 | 0.00 | 0.00 | 46 | 1016.0 |
| 20260501194951 | 74 | 294 | 0.0 | 8.0 | 0.00 | 0.00 | 0.00 | 44 | 1015.9 |
| 20260501193945 | 74 | 294 | 1.0 | 5.0 | 0.00 | 0.00 | 0.00 | 46 | 1016.0 |